Location: Unspecified
(48.7670°N, 0.0000°E)
Time: 15:52:51
(UTC+00:00)

Altair - Pass Details

Date: 22 June 2019
Orbit: 1501 x 1683 km, 47.2° (Epoch: 17 July)

Event Time Altitude Azimuth Distance (km) Brightness Sun altitude
Rises 01:03:01 0° 286° (WNW) 4,830 10.1 -16.5°
Reaches altitude 10° 01:06:09 10° 283° (WNW) 3,866 9.6 -16.4°
Maximum altitude 01:15:49 60° 207° (SSW) 1,868 7.6 -15.9°
Drops below altitude 10° 01:25:41 10° 131° (SE) 3,940 9.4 -15.4°
Sets 01:28:55 0° 128° (SE) 4,927 10.0 -15.2°
